User: anonymous   Login
Location: Caltech
(34.1382°N, 118.1253°W)
Time: 23:15:39
(UTC-07:00)
Language:

SL-08 R/B - Orbit

View from above orbital plane
View from above orbital plane
View from above satellite
View from above satellite

Ground track
Ground track

The orbit data is extracted from the following two-line orbital elements,

1 27561U 02054C   14302.97417578  .00000620  00000-0  15249-3 0  3301
2 27561 098.1254 079.2409 0045492 271.2756 198.7505 14.55024232632472
Epoch (UTC): 29 October 2014 23:22:48
Eccentricity: 0.0045492
inclination: 98.1254°
perigee height: 677 km
apogee height: 741 km
right ascension of ascending node: 79.2409°
argument of perigee: 271.2756°
revolutions per day: 14.55024232
mean anomaly at epoch: 198.7505°
orbit number at epoch: 63247

The dashed part of the orbit path shows where the satellite is in the earth's shadow,  

DLR